Simultaneous Nadir Overpasses (SNOs) Predictions

Prediction of SNOs between GOES-15 and METOP-C Satellite Orbit:

Table of predicted SNOs for the next 14.0 days since TLE Epoch: 7/18/2025
Index Date Time (GOES-15) GOES-15 Lat,Lon METOP-C Lat,Lon Distance(km) Time Diff (sec)
1 07/19/2025 05:43:35 0.01, 61.28 0.90, 57.36 446.40 80
2 07/20/2025 05:20:17 -0.03, 61.29 -0.29, 62.34 121.07 80
3 07/21/2025 17:41:55 -0.03, 61.37 -0.85, 57.78 410.80 80
4 07/22/2025 17:18:37 0.01, 61.38 0.33, 62.76 156.62 80
5 07/24/2025 05:40:07 0.04, 61.33 0.72, 58.21 354.93 80
6 07/25/2025 05:16:47 -0.00, 61.34 -0.41, 63.20 212.12 80
7 07/26/2025 17:38:27 -0.05, 61.43 -0.66, 58.62 320.04 80
8 07/27/2025 17:15:07 -0.01, 61.44 0.47, 63.61 247.41 80
9 07/29/2025 05:36:38 0.06, 61.38 0.58, 59.07 263.66 80
10 07/30/2025 05:13:18 0.02, 61.39 -0.55, 64.06 303.45 80
11 07/31/2025 17:34:57 -0.08, 61.49 -0.50, 59.48 229.10 80
12 08/01/2025 17:11:38 -0.04, 61.51 0.63, 64.47 338.00 80
